MSR670 OEJN-HECA

Flight info

Callsign MSR670
Flight time N/A
Altitude 38000
Route MIGDA L677 CVO
Aircraft A21N/M-SDE3FGHIRWY/LB1

Departure

Time 2026-05-07 11:04
Airport King Abdulaziz International Airport (OEJN)

Arrival

Time N/A
Airport Cairo International Airport (HECA)
Time Latitude Longitude Altitude Speed Heading
2026-05-07 10:33 21.66245 39.17081 56 ft 0 kts 117°
2026-05-07 10:54 21.66252 39.17068 57 ft 2 kts 117°
2026-05-07 10:54 21.66259 39.17054 57 ft 2 kts 117°
2026-05-07 10:54 21.66266 39.17039 56 ft 2 kts 117°
2026-05-07 10:55 21.66273 39.17025 56 ft 2 kts 127°
2026-05-07 10:55 21.66284 39.17014 56 ft 2 kts 144°
2026-05-07 10:55 21.66297 39.17005 56 ft 2 kts 161°
2026-05-07 10:55 21.66312 39.17002 56 ft 2 kts 176°
2026-05-07 10:56 21.66326 39.17003 56 ft 2 kts 192°
2026-05-07 10:56 21.66333 39.17005 56 ft 0 kts 198°
2026-05-07 10:58 21.66326 39.17002 56 ft 2 kts 206°
2026-05-07 10:58 21.66308 39.16984 56 ft 3 kts 230°
2026-05-07 10:59 21.66300 39.16972 56 ft 3 kts 242°
2026-05-07 10:59 21.66288 39.16944 56 ft 4 kts 248°
2026-05-07 10:59 21.66274 39.16903 56 ft 6 kts 249°
2026-05-07 10:59 21.66256 39.16850 56 ft 8 kts 250°
2026-05-07 11:00 21.66234 39.16785 56 ft 9 kts 250°
2026-05-07 11:00 21.66208 39.16710 56 ft 11 kts 249°
2026-05-07 11:00 21.66183 39.16639 56 ft 0 kts 250°
2026-05-07 11:01 21.66181 39.16633 56 ft 1 kts 250°
2026-05-07 11:01 21.66173 39.16609 56 ft 4 kts 250°
2026-05-07 11:02 21.66158 39.16566 56 ft 7 kts 250°
2026-05-07 11:02 21.66139 39.16510 56 ft 6 kts 251°
2026-05-07 11:02 21.66148 39.16479 56 ft 5 kts 332°
2026-05-07 11:02 21.66191 39.16462 56 ft 7 kts 340°
2026-05-07 11:03 21.66320 39.16410 56 ft 48 kts 339°
2026-05-07 11:03 21.66869 39.16194 57 ft 115 kts 339°
2026-05-07 11:03 21.67802 39.15825 71 ft 167 kts 339°
2026-05-07 11:03 21.68916 39.15388 582 ft 171 kts 339°
2026-05-07 11:04 21.70017 39.14960 1339 ft 168 kts 339°
2026-05-07 11:04 21.71109 39.14515 1915 ft 173 kts 339°
2026-05-07 11:04 21.72313 39.14044 2275 ft 190 kts 339°
2026-05-07 11:04 21.73616 39.13531 2629 ft 207 kts 339°
2026-05-07 11:05 21.75040 39.12970 2958 ft 227 kts 340°
2026-05-07 11:05 21.76607 39.12353 3279 ft 249 kts 340°
2026-05-07 11:05 21.78297 39.11689 3751 ft 266 kts 340°
2026-05-07 11:05 21.80059 39.10998 4408 ft 273 kts 340°
2026-05-07 11:06 21.81854 39.10294 5168 ft 278 kts 339°
2026-05-07 11:06 21.83716 39.09563 5687 ft 283 kts 339°
2026-05-07 11:06 21.85573 39.08831 5939 ft 284 kts 339°
2026-05-07 11:06 21.87443 39.08094 5982 ft 284 kts 339°
2026-05-07 11:07 21.89284 39.07362 6004 ft 284 kts 338°
2026-05-07 11:07 21.91120 39.06530 6007 ft 285 kts 336°
2026-05-07 11:07 21.92939 39.05663 6002 ft 285 kts 335°
2026-05-07 11:07 21.94768 39.04786 5990 ft 286 kts 336°
2026-05-07 11:08 21.96595 39.03911 5979 ft 287 kts 335°
2026-05-07 11:08 21.98403 39.03046 6011 ft 286 kts 336°
2026-05-07 11:08 22.00227 39.02175 5998 ft 286 kts 336°
2026-05-07 11:08 22.02081 39.01289 6111 ft 292 kts 336°
2026-05-07 11:09 22.03948 39.00398 6798 ft 295 kts 335°
2026-05-07 11:09 22.05797 38.99517 7678 ft 292 kts 334°
2026-05-07 11:09 22.07652 38.98631 8452 ft 294 kts 334°
2026-05-07 11:09 22.09523 38.97734 9195 ft 296 kts 334°
2026-05-07 11:10 22.11414 38.96831 9932 ft 299 kts 333°
2026-05-07 11:10 22.13337 38.95914 10519 ft 307 kts 333°
2026-05-07 11:10 22.15348 38.94951 10898 ft 325 kts 333°
2026-05-07 11:10 22.17464 38.93937 11187 ft 342 kts 333°
2026-05-07 11:11 22.19699 38.92869 11479 ft 360 kts 334°
2026-05-07 11:11 22.22044 38.91749 11925 ft 373 kts 334°
2026-05-07 11:11 22.24430 38.90611 12597 ft 377 kts 333°
2026-05-07 11:11 22.26857 38.89453 13310 ft 381 kts 333°
2026-05-07 11:12 22.29282 38.88295 13952 ft 386 kts 333°
2026-05-07 11:12 22.31747 38.87115 14596 ft 390 kts 333°
2026-05-07 11:12 22.35059 38.85526 15493 ft 395 kts 333°
2026-05-07 11:12 22.36759 38.84710 16011 ft 395 kts 333°
2026-05-07 11:13 22.39247 38.83517 16715 ft 397 kts 333°
2026-05-07 11:13 22.41796 38.82291 17355 ft 400 kts 333°
2026-05-07 11:13 22.44337 38.81071 17979 ft 404 kts 332°
2026-05-07 11:13 22.46936 38.79820 18609 ft 407 kts 332°
2026-05-07 11:14 22.49519 38.78576 19216 ft 409 kts 332°
2026-05-07 11:14 22.52141 38.77312 19815 ft 412 kts 332°
2026-05-07 11:14 22.54744 38.76057 20387 ft 414 kts 332°
2026-05-07 11:14 22.57386 38.74783 20957 ft 417 kts 332°
2026-05-07 11:15 22.60035 38.73506 21503 ft 419 kts 332°
2026-05-07 11:15 22.62731 38.72205 22046 ft 421 kts 331°
2026-05-07 11:15 22.65398 38.70939 22583 ft 423 kts 332°
2026-05-07 11:15 22.68125 38.69723 23103 ft 427 kts 333°
2026-05-07 11:16 22.70888 38.68513 23588 ft 430 kts 333°
2026-05-07 11:16 22.73699 38.67281 24076 ft 433 kts 333°
2026-05-07 11:16 22.76482 38.66058 24527 ft 436 kts 332°
2026-05-07 11:16 22.79330 38.64799 24957 ft 439 kts 332°
2026-05-07 11:17 22.82195 38.63529 25397 ft 442 kts 332°
2026-05-07 11:17 22.85047 38.62265 25835 ft 445 kts 332°
2026-05-07 11:17 22.87949 38.60976 26254 ft 448 kts 332°
2026-05-07 11:17 22.90822 38.59698 26650 ft 451 kts 332°
2026-05-07 11:18 22.93751 38.58395 27068 ft 453 kts 331°
2026-05-07 11:18 22.96653 38.57103 27432 ft 456 kts 331°
2026-05-07 11:18 22.99604 38.55788 27799 ft 458 kts 331°
2026-05-07 11:18 23.02591 38.54458 28139 ft 462 kts 331°
2026-05-07 11:19 23.05582 38.53126 28485 ft 464 kts 331°
2026-05-07 11:19 23.08560 38.51797 28823 ft 466 kts 331°
2026-05-07 11:19 23.11564 38.50460 29292 ft 465 kts 331°
2026-05-07 11:19 23.14556 38.49136 29794 ft 463 kts 330°
2026-05-07 11:20 23.17542 38.47813 30252 ft 462 kts 330°
2026-05-07 11:20 23.20508 38.46492 30636 ft 461 kts 330°
2026-05-07 11:20 23.23492 38.45158 30973 ft 462 kts 330°
2026-05-07 11:20 23.26470 38.43827 31328 ft 463 kts 330°
2026-05-07 11:21 23.29436 38.42500 31714 ft 462 kts 330°
2026-05-07 11:21 23.32443 38.41154 32083 ft 462 kts 329°
2026-05-07 11:21 23.35415 38.39822 32445 ft 461 kts 329°
2026-05-07 11:21 23.38364 38.38500 32736 ft 462 kts 329°
2026-05-07 11:22 23.41368 38.37151 33030 ft 463 kts 329°
2026-05-07 11:22 23.45333 38.35370 33501 ft 461 kts 329°
2026-05-07 11:22 23.47298 38.34486 33742 ft 460 kts 328°
2026-05-07 11:22 23.50240 38.33152 34071 ft 460 kts 328°
2026-05-07 11:23 23.53205 38.31804 34364 ft 460 kts 328°
2026-05-07 11:23 23.56169 38.30463 34701 ft 459 kts 328°
2026-05-07 11:23 23.59122 38.29132 35026 ft 458 kts 328°
2026-05-07 11:23 23.62060 38.27810 35325 ft 458 kts 327°
2026-05-07 11:24 23.65031 38.26471 35621 ft 457 kts 327°
2026-05-07 11:24 23.67976 38.25146 35880 ft 457 kts 327°
2026-05-07 11:24 23.70918 38.23822 36123 ft 457 kts 327°
2026-05-07 11:24 23.73857 38.22497 36319 ft 458 kts 327°
2026-05-07 11:25 23.76837 38.21150 36481 ft 459 kts 327°
2026-05-07 11:25 23.79787 38.19817 36623 ft 461 kts 327°
2026-05-07 11:25 23.82757 38.18475 36811 ft 462 kts 327°
2026-05-07 11:25 23.85738 38.17128 36965 ft 463 kts 327°
2026-05-07 11:26 23.88740 38.15770 37098 ft 465 kts 327°
2026-05-07 11:26 23.91714 38.14426 37279 ft 465 kts 327°
2026-05-07 11:26 23.94716 38.13069 37462 ft 465 kts 326°
2026-05-07 11:26 23.97706 38.11715 37595 ft 466 kts 326°
2026-05-07 11:27 24.00726 38.10345 37730 ft 467 kts 326°
2026-05-07 11:27 24.03751 38.08974 37829 ft 469 kts 326°
2026-05-07 11:27 24.09821 38.06218 37830 ft 469 kts 326°
2026-05-07 11:28 24.15666 38.03124 37833 ft 460 kts 319°
2026-05-07 11:28 24.21030 37.99426 37833 ft 451 kts 314°
2026-05-07 11:29 24.26211 37.95531 37835 ft 451 kts 314°
2026-05-07 11:29 24.31428 37.91600 37841 ft 451 kts 314°
2026-05-07 11:30 24.37462 37.87057 37859 ft 452 kts 314°
2026-05-07 11:30 24.41774 37.83815 37866 ft 451 kts 314°
2026-05-07 11:31 24.46947 37.79917 37885 ft 452 kts 314°
2026-05-07 11:31 24.52120 37.76020 37902 ft 451 kts 315°
2026-05-07 11:32 24.60736 37.69521 37947 ft 451 kts 314°
2026-05-07 11:33 24.65069 37.66246 37961 ft 451 kts 315°
2026-05-07 11:33 24.70227 37.62344 37977 ft 451 kts 315°
2026-05-07 11:34 24.75424 37.58408 37980 ft 452 kts 315°
2026-05-07 11:34 24.81454 37.53840 37958 ft 451 kts 315°
2026-05-07 11:35 24.86602 37.49932 37938 ft 451 kts 315°
2026-05-07 11:35 24.90912 37.46658 37928 ft 451 kts 315°
2026-05-07 11:36 24.96056 37.42750 37925 ft 450 kts 315°
2026-05-07 11:36 25.02080 37.38161 37916 ft 451 kts 315°
2026-05-07 11:37 25.07249 37.34222 37913 ft 451 kts 314°
2026-05-07 11:37 25.12393 37.30280 37895 ft 450 kts 315°
2026-05-07 11:38 25.17558 37.26349 37889 ft 450 kts 315°
2026-05-07 11:38 25.22722 37.22403 37881 ft 451 kts 315°
2026-05-07 11:39 25.27862 37.18470 37886 ft 450 kts 315°
2026-05-07 11:39 25.32169 37.15172 37888 ft 451 kts 315°
2026-05-07 11:40 25.38166 37.10572 37894 ft 450 kts 315°
2026-05-07 11:40 25.43339 37.06605 37892 ft 451 kts 315°
2026-05-07 11:41 25.48456 37.02677 37899 ft 451 kts 315°
2026-05-07 11:41 25.52759 36.99368 37894 ft 451 kts 315°
2026-05-07 11:42 25.57900 36.95407 37897 ft 452 kts 315°
2026-05-07 11:42 25.63926 36.90759 37902 ft 452 kts 315°
2026-05-07 11:43 25.68220 36.87442 37901 ft 451 kts 315°
2026-05-07 11:43 25.74233 36.82798 37901 ft 451 kts 315°
2026-05-07 11:44 25.79354 36.78845 37897 ft 451 kts 315°
2026-05-07 11:44 25.84492 36.74866 37901 ft 451 kts 315°
2026-05-07 11:45 25.89635 36.70880 37895 ft 451 kts 315°
2026-05-07 11:45 25.94770 36.66893 37896 ft 450 kts 315°
2026-05-07 11:46 25.99900 36.62906 37901 ft 450 kts 316°
2026-05-07 11:46 26.05052 36.58897 37907 ft 450 kts 316°
2026-05-07 11:47 26.10164 36.54912 37915 ft 450 kts 316°
2026-05-07 11:47 26.15275 36.50895 37922 ft 447 kts 314°
2026-05-07 11:48 26.19975 36.46495 37920 ft 439 kts 308°
2026-05-07 11:48 26.24228 36.41717 37918 ft 435 kts 305°
2026-05-07 11:49 26.28424 36.36869 37910 ft 435 kts 305°
2026-05-07 11:49 26.32621 36.32009 37907 ft 434 kts 304°
2026-05-07 11:50 26.36795 36.27165 37909 ft 435 kts 304°
2026-05-07 11:50 26.40999 36.22293 37908 ft 435 kts 305°
2026-05-07 11:51 26.45209 36.17417 37911 ft 436 kts 305°
2026-05-07 11:51 26.48701 36.13372 37907 ft 436 kts 305°
2026-05-07 11:52 26.53597 36.07697 37903 ft 435 kts 305°
2026-05-07 11:52 26.57787 36.02830 37915 ft 435 kts 305°
2026-05-07 11:53 26.61982 35.97955 37906 ft 435 kts 305°
2026-05-07 11:53 26.66167 35.93082 37888 ft 435 kts 305°
2026-05-07 11:54 26.70358 35.88197 37902 ft 436 kts 306°
2026-05-07 11:54 26.74532 35.83326 37905 ft 435 kts 306°
2026-05-07 11:55 26.78723 35.78433 37909 ft 436 kts 306°
2026-05-07 11:55 26.82904 35.73552 37909 ft 437 kts 306°
2026-05-07 11:56 26.87116 35.68631 37917 ft 437 kts 306°
2026-05-07 11:56 26.91305 35.63726 37909 ft 439 kts 306°
2026-05-07 11:57 26.95538 35.58763 37908 ft 437 kts 306°
2026-05-07 11:57 26.99714 35.53860 37919 ft 438 kts 307°
2026-05-07 11:58 27.03915 35.48924 37922 ft 437 kts 307°
2026-05-07 11:58 27.08096 35.44002 37918 ft 438 kts 307°
2026-05-07 11:59 27.12295 35.39071 37928 ft 438 kts 307°
2026-05-07 11:59 27.16513 35.34130 37930 ft 438 kts 307°
2026-05-07 12:00 27.20688 35.29190 37920 ft 437 kts 306°
2026-05-07 12:00 27.24865 35.24240 37929 ft 436 kts 307°
2026-05-07 12:01 27.29024 35.19313 37925 ft 437 kts 307°
2026-05-07 12:01 27.33201 35.14360 37927 ft 437 kts 307°
2026-05-07 12:02 27.37385 35.09392 37921 ft 438 kts 307°
2026-05-07 12:02 27.41570 35.04418 37922 ft 438 kts 307°
2026-05-07 12:03 27.44413 35.01036 37933 ft 438 kts 307°
2026-05-07 12:03 27.48334 34.96368 37920 ft 438 kts 307°
2026-05-07 12:04 27.52536 34.91531 37927 ft 440 kts 310°
2026-05-07 12:04 27.56920 34.86900 37923 ft 440 kts 311°
2026-05-07 12:05 27.61324 34.82264 37914 ft 440 kts 311°
2026-05-07 12:05 27.65737 34.77603 37927 ft 440 kts 311°
2026-05-07 12:06 27.68607 34.74564 37930 ft 440 kts 311°
2026-05-07 12:06 27.71884 34.71090 37927 ft 441 kts 311°
2026-05-07 12:07 27.76318 34.66384 37929 ft 440 kts 311°
2026-05-07 12:07 27.80780 34.61642 37928 ft 441 kts 311°
2026-05-07 12:08 27.85225 34.56911 37927 ft 441 kts 311°
2026-05-07 12:08 27.89696 34.52148 37931 ft 440 kts 312°
2026-05-07 12:09 27.94186 34.47357 37943 ft 442 kts 312°
2026-05-07 12:09 27.98600 34.42605 37947 ft 440 kts 310°
2026-05-07 12:10 28.01750 34.38723 37947 ft 437 kts 306°
2026-05-07 12:10 28.05338 34.33791 37959 ft 436 kts 304°